Погода в Завалове

Украина / Тернопольская область     49°12′25″N   25°01′53″E
темп.,
°C
ветер,
м/с
пор.,
м/с
влажн.,
%
обл.,
%
осадки,
мм/ч
давл.,
гПа
погр.,
м
17 апреля, сб
сб1700:00+2з61198100 0.1 1018685
03:00+1з61298100 1.2 1019676
06:00+2зсз51198100 0.6 1019605
09:00+2зсз4997100 0.8 1020465
12:00+6зсз457991 0.0 1020806
15:00+7сз3372100 0.1 10191012
18:00+7ссв337715 0.0 1019538
21:00+3св22885 0.0 102013
18 апреля, вс
вс1800:00+3всв2388100 0.0 102076
03:00+3в228865 0.0 102022
06:00+2в119111 0.0 101910
09:00+5в228188 0.0 1019293
12:00+9вюв2366100 0.0 1017966
15:00+11в2258100 0.1 10171261
18:00+11ссв2368100 0.0 1016103
21:00+9ссв2369100 0.1 101742
19 апреля, пн
пн1900:00+7св3583100 0.0 1017102
03:00+6в3593100 0.0 101797
06:00+6в2496100 0.0 1016111
09:00+6всв3591100 0.0 1016363
12:00+6всв4686100 0.2 1016371
15:00+7вюв3481100 0.2 1015243
18:00+9в2375100 0.1 1014375
21:00+7всв4878100 0.1 1014318
20 апреля, вт
вт2000:00+6св3783100 0.0 1013208
03:00+5ссв3687100 0.0 1012174
06:00+5с3684100 0.1 1011187
09:00+6с4778100 0.2 1011383
12:00+10ссз566493 0.1 10091400
15:00+9ссз787399 0.8 10091030
18:00+10сз686981 0.1 10091205
21:00+7сз388772 0.5 1010270
21 апреля, ср
ср2100:00+4зсз229170 0.0 101236
03:00+5з3591100 0.0 1012180
06:00+4зсз4109699 0.3 1013325
09:00+6зсз598695 0.8 1014492
12:00+8зсз688488 0.3 1015829
15:00+11зсз466431 0.4 10151257
18:00+11зсз466279 0.2 10151215
21:00+7з228311 0.8 101721